User: anonymous   Login
Location: Obersdorf
(47.4079°N, 10.2781°E)
Time: 23:34:36
(UTC+01:00)
Language:

FO-29 - Orbit

View from above orbital plane
View from above orbital plane
View from above satellite
View from above satellite

Ground track
Ground track

The orbit data is extracted from the following two-line orbital elements,

1 24278U 96046B   21335.41439875 -.00000002  00000-0  31209-4 0  9995
2 24278  98.5451  21.0993 0351300  77.0316 286.9803 13.53108106248825
Epoch (UTC): 01 December 2021 09:56:44
Eccentricity: 0.0351300
inclination: 98.5451°
perigee height: 799 km
apogee height: 1322 km
right ascension of ascending node: 21.0993°
argument of perigee: 77.0316°
revolutions per day: 13.53108106
mean anomaly at epoch: 286.9803°
orbit number at epoch: 24882

The dashed part of the orbit path shows where the satellite is in the earth's shadow,  

DLR